Hammond, LA

3:01 AM CST on December 07, 2019 (GMT -0600)
Hammond Municipal

Weather History for KHDC - October, 2019

Change the Weather History Date:

Friday, October 18, 2019

  Actual Average (KMSY) Record (KMSY)
Temperature  
Mean Temperature 63 °F -  
Max Temperature 71 °F 79 °F 89 °F (2016)
Min Temperature 55 °F 58 °F 44 °F (1977)
Degree Days  
Heating Degree Days 2    
Growing Degree Days 13 (Base 50)    
Moisture  
Dew Point 52 °F    
Average Humidity 71    
Maximum Humidity 88    
Minimum Humidity 49    
Precipitation  
Precipitation 0.13 in - - ()
Sea Level Pressure  
Sea Level Pressure 29.86 in    
Wind  
Wind Speed 4 mph (NE)    
Max Wind Speed 9 mph    
Max Gust Speed 16 mph    
Visibility 10 miles    
Events      
Averages and records for this station are not official NWS values.
T = Trace of Precipitation, MM = Missing Value Source: NWS Daily Summary

Daily Weather History Graph

Daily Weather History Graph

Search for Another Location

Airport or City:

Astronomy

Oct. 18, 2019 Rise Set
Actual Time 7:05 AM CDT 6:27 PM CDT
Civil Twilight 6:41 AM CDT 6:51 PM CDT
Nautical Twilight 6:13 AM CDT 7:19 PM CDT
Astronomical Twilight 5:45 AM CDT 7:47 PM CDT
Moon 9:59 PM CDT (10/18) 11:23 AM CDT (10/18)
Length of Visible Light 12h 10m
Length of Day
11h 21m
Waning Gibbous, 78% of the Moon is Illuminated
Oct 18
Waning Gibbous
Oct 21
Last Quarter
Oct 27
New
Nov 4
First Quarter
Nov 12
Full

Hourly Weather History & Observations

Time (CDT) Temp. Dew Point Humidity Pressure Visibility Wind Dir Wind Speed Gust Speed Precip Events Conditions
12:35 AM 59.0 °F 51.8 °F 77% 29.94 in 10.0 mi NE 3.5 mph - N/A   Clear
12:55 AM 57.2 °F 51.8 °F 82% 29.93 in 10.0 mi ENE 3.5 mph - N/A   Clear
1:15 AM 57.2 °F 51.8 °F 82% 29.92 in 10.0 mi NE 3.5 mph - N/A   Clear
1:35 AM 57.2 °F 51.8 °F 82% 29.92 in 10.0 mi ENE 4.6 mph - 0.01 in   Clear
1:55 AM 57.2 °F 51.8 °F 82% 29.92 in 10.0 mi ENE 3.5 mph - 0.01 in   Clear
2:15 AM 57.2 °F 51.8 °F 82% 29.93 in 10.0 mi Calm Calm - N/A   Clear
2:35 AM 57.2 °F 51.8 °F 82% 29.93 in 10.0 mi NE 3.5 mph - N/A   Clear
2:55 AM 57.2 °F 51.8 °F 82% 29.92 in 10.0 mi East 3.5 mph - N/A   Clear
3:15 AM 57.2 °F 51.8 °F 82% 29.91 in 10.0 mi East 4.6 mph - N/A   Clear
3:35 AM 57.2 °F 51.8 °F 82% 29.90 in 10.0 mi ENE 3.5 mph - N/A   Clear
3:55 AM 57.2 °F 51.8 °F 82% 29.90 in 10.0 mi ENE 3.5 mph - N/A   Clear
4:15 AM 57.2 °F 51.8 °F 82% 29.89 in 10.0 mi East 3.5 mph - 0.01 in   Clear
4:35 AM 57.2 °F 51.8 °F 82% 29.89 in 10.0 mi Calm Calm - 0.01 in   Clear
4:55 AM 55.4 °F 51.8 °F 88% 29.89 in 10.0 mi NNE 3.5 mph - 0.01 in   Clear
5:15 AM 55.4 °F 51.8 °F 88% 29.89 in 10.0 mi NNE 3.5 mph - N/A   Clear
5:35 AM 55.4 °F 51.8 °F 88% 29.89 in 10.0 mi Calm Calm - N/A   Clear
5:55 AM 55.4 °F 51.8 °F 88% 29.89 in 10.0 mi ENE 3.5 mph - N/A   Clear
6:15 AM 55.4 °F 51.8 °F 88% 29.90 in 10.0 mi Calm Calm - 0.01 in   Clear
6:35 AM 55.4 °F 51.8 °F 88% 29.90 in 10.0 mi NE 3.5 mph - 0.01 in   Clear
6:55 AM 55.4 °F 51.8 °F 88% 29.90 in 10.0 mi NE 4.6 mph - 0.01 in   Clear
7:15 AM 55.4 °F 51.8 °F 88% 29.90 in 10.0 mi ENE 4.6 mph - N/A   Clear
7:35 AM 55.4 °F 50.0 °F 82% 29.91 in 10.0 mi ENE 5.8 mph - N/A   Clear
7:55 AM 55.4 °F 50.0 °F 82% 29.91 in 10.0 mi NE 5.8 mph - N/A   Scattered Clouds
8:15 AM 57.2 °F 50.0 °F 77% 29.92 in 10.0 mi ENE 5.8 mph - N/A   Scattered Clouds
8:35 AM 57.2 °F 50.0 °F 77% 29.92 in 10.0 mi ENE 5.8 mph - N/A   Clear
8:55 AM 57.2 °F 50.0 °F 77% 29.91 in 10.0 mi ENE 6.9 mph - N/A   Clear
9:15 AM 59.0 °F 50.0 °F 72% 29.92 in 10.0 mi ENE 5.8 mph - 0.01 in   Clear
9:35 AM 59.0 °F 50.0 °F 72% 29.91 in 10.0 mi NE 6.9 mph - 0.01 in   Clear
9:55 AM 60.8 °F 50.0 °F 68% 29.90 in 10.0 mi ENE 8.1 mph - 0.01 in   Clear
10:15 AM 62.6 °F 50.0 °F 63% 29.90 in 10.0 mi East 8.1 mph - N/A   Clear
10:35 AM 64.4 °F 51.8 °F 64% 29.90 in 10.0 mi East 5.8 mph - N/A   Clear
11:15 AM 68.0 °F 51.8 °F 56% 29.89 in 10.0 mi East 8.1 mph 16.1 mph 0.01 in   Clear
11:35 AM 64.4 °F 51.8 °F 64% 29.88 in 10.0 mi ENE 5.8 mph - 0.01 in   Clear
11:55 AM 64.4 °F 51.8 °F 64% 29.86 in 10.0 mi ENE 6.9 mph - 0.01 in   Clear
12:15 PM 64.4 °F 51.8 °F 64% 29.87 in 10.0 mi NE 4.6 mph - N/A   Clear
12:35 PM 64.4 °F 51.8 °F 64% 29.88 in 10.0 mi East 8.1 mph - N/A   Scattered Clouds
12:55 PM 64.4 °F 51.8 °F 64% 29.87 in 10.0 mi NE 3.5 mph - N/A   Overcast
1:15 PM 64.4 °F 51.8 °F 64% 29.85 in 10.0 mi NE 5.8 mph - N/A   Overcast
1:35 PM 68.0 °F 51.8 °F 56% 29.85 in 10.0 mi NE 6.9 mph - 0.01 in   Overcast
1:55 PM 68.0 °F 53.6 °F 60% 29.83 in 10.0 mi NE 5.8 mph - 0.01 in   Overcast
2:15 PM 69.8 °F 53.6 °F 56% 29.84 in 10.0 mi ENE 5.8 mph - N/A   Overcast
2:35 PM 69.8 °F 53.6 °F 56% 29.82 in 10.0 mi NE 4.6 mph - 0.01 in   Overcast
2:55 PM 69.8 °F 53.6 °F 56% 29.82 in 10.0 mi NE 8.1 mph - 0.01 in   Overcast
3:15 PM 69.8 °F 53.6 °F 56% 29.81 in 10.0 mi NE 6.9 mph - N/A   Overcast
3:35 PM 69.8 °F 53.6 °F 56% 29.81 in 10.0 mi NE 4.6 mph - N/A   Mostly Cloudy
3:55 PM 71.6 °F 53.6 °F 53% 29.80 in 10.0 mi NE 8.1 mph - N/A   Scattered Clouds
4:15 PM 71.6 °F 53.6 °F 53% 29.80 in 10.0 mi ENE 9.2 mph - 0.01 in   Clear
4:55 PM 69.8 °F 50.0 °F 49% 29.79 in 10.0 mi NE 8.1 mph - 0.01 in   Mostly Cloudy
5:15 PM 69.8 °F 51.8 °F 53% 29.80 in 10.0 mi ENE 8.1 mph - 0.01 in   Overcast
5:35 PM 68.0 °F 51.8 °F 56% 29.79 in 10.0 mi NNE 5.8 mph - 0.01 in   Overcast
5:55 PM 69.8 °F 53.6 °F 56% 29.79 in 10.0 mi ENE 3.5 mph - 0.01 in   Overcast
6:15 PM 68.0 °F 53.6 °F 60% 29.79 in 10.0 mi ENE 3.5 mph - N/A   Overcast
6:35 PM 66.2 °F 53.6 °F 64% 29.79 in 10.0 mi NE 6.9 mph - N/A   Overcast
6:55 PM 64.4 °F 51.8 °F 64% 29.79 in 10.0 mi NE 5.8 mph - 0.01 in   Overcast
7:15 PM 64.4 °F 51.8 °F 64% 29.78 in 10.0 mi NE 4.6 mph - N/A   Mostly Cloudy
7:35 PM 64.4 °F 51.8 °F 64% 29.78 in 10.0 mi NE 6.9 mph - N/A   Mostly Cloudy
7:55 PM 62.6 °F 51.8 °F 68% 29.78 in 10.0 mi NE 6.9 mph - 0.01 in   Scattered Clouds
8:15 PM 62.6 °F 51.8 °F 68% 29.78 in 10.0 mi NE 3.5 mph - N/A   Clear
8:35 PM 62.6 °F 51.8 °F 68% 29.78 in 10.0 mi NE 5.8 mph - N/A   Clear
8:55 PM 60.8 °F 51.8 °F 72% 29.79 in 10.0 mi ENE 3.5 mph - N/A   Scattered Clouds
9:15 PM 62.6 °F 51.8 °F 68% 29.79 in 10.0 mi NNE 3.5 mph - N/A   Overcast
9:35 PM 60.8 °F 51.8 °F 72% 29.80 in 10.0 mi North 4.6 mph - N/A   Overcast
9:55 PM 60.8 °F 51.8 °F 72% 29.81 in 10.0 mi NE 3.5 mph - 0.01 in   Overcast
10:15 PM 60.8 °F 51.8 °F 72% 29.81 in 10.0 mi NNE 3.5 mph - N/A   Overcast
10:55 PM 60.8 °F 51.8 °F 72% 29.80 in 10.0 mi Calm Calm - N/A   Overcast
11:15 PM 60.8 °F 51.8 °F 72% 29.80 in 10.0 mi NE 3.5 mph - 0.01 in   Overcast
11:35 PM 60.8 °F 51.8 °F 72% 29.79 in 10.0 mi Calm Calm - 0.01 in   Overcast
11:55 PM 60.8 °F 51.8 °F 72% 29.79 in 10.0 mi Calm Calm - 0.01 in   Overcast